| time (UTC) | temp F | wind direction | speed MPH | gust MPH | rain 1hr in | rain 24hr in | rain mn in | humidity % | barometer mb |
| 20260902091516 | 65 | 78 | 1.0 | 4.0 | 0.00 | 0.00 | 0.00 | 84 | 1010.6 |
| 20260902090122 | 65 | 163 | 1.0 | 3.0 | 0.00 | 0.00 | 0.00 | 84 | 1011.1 |
| 20260902084510 | 65 | 163 | 1.0 | 3.0 | 0.00 | 0.00 | 0.00 | 84 | 1011.3 |
| 20260902083004 | 66 | 122 | 2.0 | 4.0 | 0.00 | 0.00 | 0.00 | 83 | 1011.2 |
| 20260902081517 | 66 | 122 | 3.0 | 6.0 | 0.00 | 0.00 | 0.00 | 82 | 1011.1 |
| 20260902080124 | 66 | 126 | 3.0 | 7.0 | 0.00 | 0.00 | 0.00 | 83 | 1011.1 |
| 20260902074508 | 67 | 184 | 1.0 | 2.0 | 0.00 | 0.00 | 0.00 | 81 | 1011.0 |
| 20260902073130 | 67 | 162 | 2.0 | 6.0 | 0.00 | 0.00 | 0.00 | 82 | 1011.3 |
| 20260902071514 | 67 | 129 | 1.0 | 2.0 | 0.00 | 0.00 | 0.00 | 84 | 1011.0 |
| 20260902070012 | 67 | 129 | 1.0 | 3.0 | 0.00 | 0.00 | 0.00 | 81 | 1011.1 |
| 20260902064516 | 66 | 129 | 2.0 | 4.0 | 0.00 | 0.00 | 0.00 | 84 | 1011.5 |
| 20260902063132 | 66 | 36 | 0.0 | 2.0 | 0.00 | 0.00 | 0.00 | 82 | 1011.1 |
| 20260902061513 | 68 | 36 | 1.0 | 3.0 | 0.00 | 0.00 | 0.00 | 81 | 1010.9 |
| 20260902060018 | 67 | 36 | 0.0 | 2.0 | 0.00 | 0.00 | 0.00 | 85 | 1011.1 |
| 20260902054527 | 67 | 36 | 0.0 | 2.0 | 0.00 | 0.00 | 0.00 | 86 | 1011.5 |
| 20260902053016 | 67 | 36 | 0.0 | 2.0 | 0.00 | 0.00 | 0.00 | 86 | 1011.8 |
| 20260902051514 | 67 | 36 | 0.0 | 1.0 | 0.00 | 0.00 | 0.00 | 84 | 1011.7 |
| 20260902050126 | 68 | 36 | 0.0 | 2.0 | 0.00 | 0.00 | 0.00 | 81 | 1011.5 |
| 20260902044515 | 69 | 36 | 2.0 | 3.0 | 0.00 | 0.00 | 0.00 | 80 | 1011.3 |
| 20260902043007 | 70 | 36 | 2.0 | 4.0 | 0.00 | 0.00 | 0.00 | 80 | 1011.3 |
| 20260902041517 | 70 | 13 | 1.0 | 3.0 | 0.00 | 0.00 | 0.00 | 79 | 1011.6 |
| 20260902040009 | 69 | 306 | 0.0 | 3.0 | 0.00 | 0.00 | 0.00 | 83 | 1011.7 |
| 20260902034503 | 69 | 293 | 0.0 | 1.0 | 0.00 | 0.00 | 0.00 | 84 | 1011.8 |
| 20260902033007 | 69 | 293 | 0.0 | 2.0 | 0.00 | 0.00 | 0.00 | 84 | 1012.1 |
| 20260902031514 | 70 | 293 | 0.0 | 2.0 | 0.00 | 0.00 | 0.00 | 83 | 1011.9 |
| 20260902030004 | 69 | 293 | 0.0 | 1.0 | 0.00 | 0.00 | 0.00 | 83 | 1011.7 |
| 20260902024513 | 68 | 293 | 0.0 | 0.0 | 0.00 | 0.00 | 0.00 | 83 | 1011.5 |
| 20260902023015 | 69 | 293 | 0.0 | 1.0 | 0.00 | 0.00 | 0.00 | 83 | 1011.6 |
| 20260902021508 | 69 | 293 | 0.0 | 2.0 | 0.00 | 0.00 | 0.00 | 81 | 1011.4 |
| 20260902020005 | 69 | 293 | 1.0 | 2.0 | 0.00 | 0.00 | 0.00 | 81 | 1011.4 |
| 20260902014630 | 70 | 293 | 0.0 | 2.0 | 0.00 | 0.00 | 0.00 | 79 | 1011.1 |
| 20260902013013 | 70 | 293 | 1.0 | 2.0 | 0.00 | 0.00 | 0.00 | 79 | 1011.4 |
| 20260902011624 | 70 | 293 | 0.0 | 2.0 | 0.00 | 0.00 | 0.00 | 76 | 1011.0 |
| 20260902010019 | 71 | 293 | 0.0 | 1.0 | 0.00 | 0.00 | 0.00 | 73 | 1010.8 |
| 20260902004623 | 72 | 293 | 0.0 | 1.0 | 0.00 | 0.00 | 0.00 | 70 | 1010.9 |
| 20260902003012 | 76 | 293 | 1.0 | 2.0 | 0.00 | 0.00 | 0.00 | 59 | 1011.1 |
| 20260902001507 | 77 | 293 | 1.0 | 4.0 | 0.00 | 0.00 | 0.00 | 56 | 1011.2 |
| 20260902000126 | 78 | 320 | 1.0 | 3.0 | 0.00 | 0.00 | 0.00 | 54 | 1011.3 |
| 20260901234628 | 78 | 320 | 1.0 | 4.0 | 0.00 | 0.00 | 0.00 | 54 | 1011.1 |
| 20260901233008 | 79 | 302 | 2.0 | 7.0 | 0.00 | 0.00 | 0.00 | 51 | 1011.2 |
| 20260901231513 | 80 | 315 | 4.0 | 9.0 | 0.00 | 0.00 | 0.00 | 49 | 1011.3 |
| 20260901230014 | 80 | 325 | 2.0 | 9.0 | 0.00 | 0.00 | 0.00 | 50 | 1011.3 |
| 20260901224506 | 81 | 303 | 3.0 | 9.0 | 0.00 | 0.00 | 0.00 | 46 | 1011.2 |
| 20260901223136 | 82 | 328 | 4.0 | 8.0 | 0.00 | 0.00 | 0.00 | 45 | 1011.3 |
| 20260901221508 | 82 | 269 | 4.0 | 7.0 | 0.00 | 0.00 | 0.00 | 48 | 1011.1 |
| 20260901220019 | 81 | 289 | 3.0 | 8.0 | 0.00 | 0.00 | 0.00 | 46 | 1011.0 |
| 20260901214627 | 81 | 271 | 3.0 | 9.0 | 0.00 | 0.00 | 0.00 | 46 | 1011.0 |
| 20260901213010 | 82 | 321 | 2.0 | 9.0 | 0.00 | 0.00 | 0.00 | 44 | 1010.8 |
| 20260901211510 | 82 | 313 | 7.0 | 12.0 | 0.00 | 0.00 | 0.00 | 39 | 1010.7 |
| 20260901210021 | 83 | 126 | 1.0 | 5.0 | 0.00 | 0.00 | 0.00 | 43 | 1011.0 |
| 20260901204513 | 82 | 303 | 4.0 | 8.0 | 0.00 | 0.00 | 0.00 | 44 | 1011.2 |
| 20260901203019 | 82 | 300 | 2.0 | 8.0 | 0.00 | 0.00 | 0.00 | 44 | 1011.2 |
| 20260901201504 | 81 | 288 | 4.0 | 8.0 | 0.00 | 0.00 | 0.00 | 44 | 1011.4 |
| 20260901200022 | 81 | 262 | 4.0 | 8.0 | 0.00 | 0.00 | 0.00 | 44 | 1011.5 |
| 20260901194516 | 80 | 324 | 2.0 | 9.0 | 0.00 | 0.00 | 0.00 | 45 | 1011.5 |
| 20260901193133 | 82 | 182 | 5.0 | 10.0 | 0.00 | 0.00 | 0.00 | 46 | 1011.5 |
| 20260901191506 | 82 | 263 | 5.0 | 9.0 | 0.00 | 0.00 | 0.00 | 45 | 1011.6 |
| 20260901190010 | 81 | 237 | 4.0 | 8.0 | 0.00 | 0.00 | 0.00 | 46 | 1011.8 |
| 20260901184507 | 81 | 214 | 3.0 | 9.0 | 0.00 | 0.00 | 0.00 | 48 | 1011.8 |
| 20260901183017 | 81 | 335 | 3.0 | 6.0 | 0.00 | 0.00 | 0.00 | 45 | 1012.0 |
| 20260901181622 | 80 | 290 | 3.0 | 8.0 | 0.00 | 0.00 | 0.00 | 48 | 1012.2 |
| 20260901180128 | 80 | 334 | 2.0 | 6.0 | 0.00 | 0.00 | 0.00 | 49 | 1012.3 |
| 20260901174513 | 79 | 104 | 0.0 | 4.0 | 0.00 | 0.00 | 0.00 | 52 | 1012.5 |
| 20260901173003 | 79 | 312 | 2.0 | 6.0 | 0.00 | 0.00 | 0.00 | 54 | 1012.4 |
| 20260901171508 | 79 | 298 | 1.0 | 8.0 | 0.00 | 0.00 | 0.00 | 60 | 1012.4 |
| 20260901170200 | 78 | 331 | 3.0 | 5.0 | 0.00 | 0.00 | 0.00 | 57 | 1012.4 |
| 20260901164515 | 78 | 80 | 0.0 | 3.0 | 0.00 | 0.00 | 0.00 | 64 | 1012.7 |
| 20260901163017 | 76 | 10 | 0.0 | 3.0 | 0.00 | 0.00 | 0.00 | 63 | 1012.7 |
| 20260901161509 | 75 | 27 | 1.0 | 3.0 | 0.00 | 0.00 | 0.00 | 64 | 1012.7 |
| 20260901160007 | 75 | 29 | 1.0 | 3.0 | 0.00 | 0.00 | 0.00 | 65 | 1012.7 |
| 20260901154638 | 75 | 14 | 0.0 | 3.0 | 0.00 | 0.00 | 0.00 | 67 | 1012.8 |
| 20260901153011 | 73 | 296 | 1.0 | 4.0 | 0.00 | 0.00 | 0.00 | 69 | 1012.8 |
| 20260901151516 | 73 | 14 | 1.0 | 3.0 | 0.00 | 0.00 | 0.00 | 71 | 1012.8 |
| 20260901150007 | 72 | 340 | 2.0 | 6.0 | 0.00 | 0.00 | 0.00 | 71 | 1012.9 |
| 20260901144505 | 71 | 13 | 2.0 | 6.0 | 0.00 | 0.00 | 0.00 | 75 | 1012.7 |
| 20260901143016 | 70 | 315 | 4.0 | 6.0 | 0.00 | 0.00 | 0.00 | 76 | 1012.8 |
| 20260901141505 | 69 | 274 | 2.0 | 8.0 | 0.00 | 0.00 | 0.00 | 79 | 1012.7 |
| 20260901140015 | 68 | 293 | 3.0 | 9.0 | 0.00 | 0.00 | 0.00 | 82 | 1012.9 |
| 20260901134506 | 67 | 255 | 1.0 | 8.0 | 0.00 | 0.00 | 0.00 | 85 | 1012.8 |
| 20260901133011 | 66 | 278 | 2.0 | 7.0 | 0.00 | 0.00 | 0.00 | 89 | 1012.7 |
| 20260901131636 | 64 | 271 | 1.0 | 5.0 | 0.00 | 0.00 | 0.00 | 92 | 1012.6 |
| 20260901130014 | 62 | 301 | 2.0 | 4.0 | 0.00 | 0.00 | 0.00 | 94 | 1012.5 |
| 20260901124509 | 61 | 302 | 1.0 | 2.0 | 0.00 | 0.00 | 0.00 | 94 | 1012.4 |
| 20260901123009 | 59 | 302 | 0.0 | 2.0 | 0.00 | 0.00 | 0.00 | 94 | 1012.2 |
| 20260901121514 | 57 | 302 | 0.0 | 0.0 | 0.00 | 0.00 | 0.00 | 94 | 1012.1 |
| 20260901120129 | 57 | 302 | 0.0 | 0.0 | 0.00 | 0.00 | 0.00 | 94 | 1011.9 |
| 20260901114633 | 56 | 302 | 0.0 | 1.0 | 0.00 | 0.00 | 0.00 | 94 | 1011.8 |
| 20260901113011 | 57 | 302 | 0.0 | 0.0 | 0.00 | 0.00 | 0.00 | 94 | 1011.7 |
| 20260901111513 | 57 | 302 | 0.0 | 1.0 | 0.00 | 0.00 | 0.00 | 94 | 1011.6 |
| 20260901110005 | 57 | 302 | 0.0 | 2.0 | 0.00 | 0.00 | 0.00 | 94 | 1011.5 |
| 20260901104517 | 57 | 302 | 1.0 | 3.0 | 0.00 | 0.00 | 0.00 | 94 | 1011.4 |
| 20260901103129 | 57 | 302 | 1.0 | 3.0 | 0.00 | 0.00 | 0.00 | 94 | 1011.5 |
| 20260901101506 | 58 | 302 | 0.0 | 2.0 | 0.00 | 0.00 | 0.00 | 93 | 1011.3 |
| 20260901100013 | 58 | 302 | 2.0 | 3.0 | 0.00 | 0.00 | 0.00 | 93 | 1011.2 |
| 20260901094505 | 58 | 302 | 0.0 | 2.0 | 0.00 | 0.00 | 0.00 | 93 | 1011.0 |
| 20260901093004 | 59 | 302 | 0.0 | 2.0 | 0.00 | 0.00 | 0.00 | 93 | 1011.0 |